[[{"header":{"parameterUnit":"m.s-1","parameterCategory":1,"la1":30.2991,"la2":30.254,"lo1":-89.0895,"lo2":-89.0444,"dy":0.0017,"dx":0.0017,"nx":28,"ny":28,"refTime":"2025-06-04T09:00:00:Z","depth":0,"parameterNumber":2,"parameterNumberName":"U-component_of_WINDS"},"data":[0,0,0,0,0,0,0,0,0,0,0,0,0,0,0,0,0,0,0,0,0,0,0,0,0,0,0,0,0,0,0,0,0,0,0,0,0,0,0,0,0,0,0,0,0,0,0,0,0,0,0,0,0,0,0,0,0,0,-5.1447,-5.1449,0,-5.1589,-5.1591,-5.1593,-5.1584,-5.1582,-5.158,-5.1578,-5.1716,-5.1722,-5.1727,0,0,0,0,0,0,0,0,0,0,0,0,0,-5.1163,-5.1169,-5.1447,-5.1449,-5.1451,-5.1589,-5.1591,-5.1593,-5.1584,-5.1582,-5.1579,-5.1577,-5.1714,-5.1721,-5.1728,0,0,0,0,0,0,0,0,0,0,0,0,0,-5.1294,-5.117,-5.1447,-5.1463,-5.1466,-5.1589,-5.1591,-5.1594,-5.1585,-5.1582,-5.1578,-5.1576,-5.1712,-5.172,-5.1729,-5.1842,0,0,-5.1754,-5.1758,0,0,0,0,0,0,0,0,-5.1286,-5.1304,-5.1459,-5.1462,-5.1466,-5.1566,-5.1542,-5.1677,-5.1585,-5.1539,-5.1578,-5.1574,-5.1668,-5.168,-5.1713,-5.1849,-5.1855,-5.1755,-5.176,-5.1764,-5.1766,0,0,0,0,0,0,0,-5.1277,-5.1298,-5.1503,-5.1461,-5.1465,-5.1462,-5.1477,-5.1567,-5.1619,-5.1543,-5.1543,-5.156,-5.1669,-5.1705,-5.1716,-5.1857,-5.1755,-5.1762,-5.1768,-5.1771,-5.2094,-5.2097,0,0,0,0,0,0,-5.1266,-5.1291,-5.1499,-5.1507,-5.1367,-5.1469,-5.1486,-5.1537,-5.1618,-5.1628,-5.1563,-5.1559,-5.1692,-5.1707,-5.1721,-5.186,-5.1764,-5.1772,-5.1777,-5.209,-5.2094,-5.2098,0,0,0,0,0,0,-5.126,-5.1284,-5.1493,-5.1399,-5.1426,-5.1478,-5.1534,-5.1541,-5.1577,-5.1633,-5.1642,-5.159,-5.1691,-5.1709,-5.1813,-5.1864,-5.1775,-5.1783,-5.2086,-5.2091,-5.2096,-5.2137,0,0,0,0,0,0,-5.1251,-5.1282,-5.1327,-5.14,-5.1431,-5.1584,-5.1537,-5.1546,-5.1592,-5.1589,-5.1661,-5.167,-5.169,-5.1801,-5.1821,-5.1874,-5.179,-5.2081,-5.2088,-5.2095,-5.2131,-5.2143,-5.2153,0,0,0,0,0,-5.1241,-5.1331,-5.1329,-5.1354,-5.1488,-5.1587,-5.1604,-5.1627,-5.1596,-5.1641,-5.1678,-5.1667,-5.1856,-5.1811,-5.1835,-5.1891,-5.2078,-5.2086,-5.2094,-5.2126,-5.2141,-5.2153,0,0,0,0,0,0,-5.1258,-5.134,-5.1339,-5.1456,-5.1515,-5.1585,-5.1641,-5.1641,-5.1708,-5.1701,-5.1725,-5.1742,-5.1846,-5.1879,-5.1827,-5.2006,-5.1963,-5.1976,-5.1979,-5.1994,-5.2004,-5.1993,-5.1797,0,0,0,0,0,-5.1276,-5.1352,-5.1419,-5.1514,-5.1545,-5.1588,-5.1632,-5.1645,-5.1706,-5.173,-5.1774,-5.1832,-5.1905,-5.1951,-5.2021,-5.2137,-5.2152,-5.2188,-5.2199,-5.2207,-5.2217,-5.2281,-5.2297,-5.2124,-5.2124,-5.2124,0,0,-5.1312,-5.1367,-5.1412,-5.1519,-5.1566,-5.1642,-5.1609,-5.169,-5.1746,-5.1742,-5.1843,-5.1878,-5.1944,-5.2054,-5.2105,-5.2085,-5.2269,-5.2217,-5.2224,-5.2229,-5.2291,-5.2307,-5.2322,-5.213,-5.2129,-5.2128,0,0,-5.1416,-5.1466,-5.1552,-5.1601,-5.1674,-5.1704,-5.1724,-5.1796,-5.182,-5.1922,-5.1921,-5.1988,-5.2112,-5.2159,-5.22,-5.2327,-5.232,-5.2349,-5.2404,-5.2467,-5.248,-5.2492,-5.2537,-5.2552,-5.2359,-5.2359,-5.236,0,-5.1451,-5.1567,-5.1595,-5.1678,-5.1725,-5.1729,-5.1815,-5.1861,-5.1952,-5.1983,-5.1961,-5.2119,-5.2163,-5.2285,-5.2317,-5.235,-5.2373,-5.2339,-5.2477,-5.2489,-5.2501,-5.2543,-5.256,-5.2362,-5.2362,-5.2362,-5.2361,0,-5.1606,-5.1687,-5.1747,-5.1839,-5.1893,-5.1977,-5.2016,-5.2067,-5.2077,-5.2109,-5.2213,-5.2268,-5.2349,-5.238,-5.2389,-5.2504,-5.2489,-5.2472,-5.2429,-5.252,-5.256,-5.2576,-5.2367,-5.2366,-5.2365,-5.2364,0,0,-5.172,-5.183,-5.1851,-5.1893,-5.1976,-5.2038,-5.2123,-5.2206,-5.2249,-5.2313,-5.2383,-5.249,-5.2476,-5.2522,-5.2537,-5.2592,-5.2688,-5.2568,-5.257,-5.2587,-5.2817,-5.2828,-5.2846,-5.2686,-5.2689,-5.2692,-5.2811,0,-5.1832,-5.1984,-5.2013,-5.2144,-5.2219,-5.2226,-5.23,-5.2358,-5.239,-5.2457,-5.2493,-5.2568,-5.2544,-5.2572,-5.2627,-5.2665,-5.2734,-5.2657,-5.2749,-5.2752,-5.273,-5.2868,-5.2879,-5.2988,-5.2827,-5.283,-5.2832,0,-5.1981,-5.2052,-5.2192,-5.2267,-5.2299,-5.2365,-5.2444,-5.2509,-5.2576,-5.2595,-5.2649,-5.2659,-5.2746,-5.2703,-5.2822,-5.2769,-5.2809,-5.2834,-5.2839,-5.2846,-5.2795,-5.2876,-5.3024,-5.304,-5.2857,-5.2855,-5.2853,0,-5.2048,-5.2179,-5.228,-5.2316,-5.2406,-5.2453,-5.2492,-5.2556,-5.2605,-5.2673,-5.2705,-5.2782,-5.2824,-5.2883,-5.2913,-5.2879,-5.3031,-5.299,-5.3048,-5.3047,-5.3076,-5.3073,-5.3231,-5.3107,-5.3107,-5.3106,-5.3106,0,-5.2168,-5.2252,-5.2312,-5.2373,-5.2468,-5.2502,-5.2594,-5.2633,-5.2691,-5.2759,-5.277,-5.2833,-5.2871,-5.2939,-5.2964,-5.3059,-5.3078,-5.3095,-5.31,-5.3093,-5.309,-5.3117,-5.3109,-5.3111,-5.311,-5.3109,-5.3108,0,-5.2257,-5.23,-5.241,-5.2489,-5.2511,-5.2577,-5.2644,-5.2703,-5.2738,-5.2824,-5.2847,-5.29,-5.2982,-5.3019,-5.3119,-5.3136,-5.3244,-5.3244,-5.3222,-5.3223,-5.3278,-5.3272,-5.3456,-5.3481,-5.3343,-5.3344,-5.3345,0,-5.2329,-5.2395,-5.2482,-5.253,-5.2571,-5.2648,-5.2699,-5.2735,-5.2787,-5.287,-5.2919,-5.3002,-5.307,-5.3201,-5.3247,-5.3325,-5.3326,-5.3385,-5.3337,-5.3328,-5.3324,-5.3319,-5.3325,-5.3392,-5.3394,-5.3395,-5.3396,0,-5.2451,-5.2471,-5.2544,-5.2627,-5.2687,-5.2753,-5.2817,-5.2856,-5.2902,-5.296,-5.3045,-5.3098,-5.3203,-5.3285,-5.3366,-5.3405,-5.3408,-5.3412,-5.3429,-5.342,-5.3404,-5.3412,-5.3243,-5.3406,-5.3405,-5.3404,-5.3403,-5.3403,-5.2533,-5.2592,-5.2663,-5.2745,-5.2799,-5.2859,-5.292,-5.2964,-5.3037,-5.3126,-5.3143,-5.3234,-5.3301,-5.341,-5.3453,-5.3524,-5.3509,-5.3534,-5.354,-5.3545,-5.3548,-5.3396,-5.3539,-5.3538,-5.3538,-5.3538,-5.3538,0,-5.2654,-5.2702,-5.2777,-5.2869,-5.2933,-5.2935,-5.3007,-5.306,-5.3141,-5.3204,-5.3273,-5.3371,-5.3452,-5.3507,-5.3588,-5.3634,-5.3638,-5.3654,-5.3649,-5.3658,-5.3557,-5.3533,-5.365,-5.365,-5.365,-5.365,-5.365,-5.365,-5.2725,-5.2825,-5.2853,-5.2981,-5.3027,-5.3118,-5.3159,-5.3215,-5.3266,-5.3377,-5.3445,-5.3482,-5.3542,-5.3628,-5.3702,-5.3716,-5.3744,-5.3761,-5.3774,-5.3677,-5.3665,-5.3654,-5.3632,-5.3768,-5.3768,-5.387,-5.3871,-5.3872]},{"header":{"parameterUnit":"m.s-1","parameterCategory":1,"la1":30.2991,"la2":30.254,"lo1":-89.0895,"lo2":-89.0444,"dy":0.0017,"dx":0.0017,"nx":28,"ny":28,"refTime":"2025-06-04T09:00:00:Z","depth":0,"parameterNumber":3,"parameterNumberName":"V-component_of_WINDS"},"data":[0,0,0,0,0,0,0,0,0,0,0,0,0,0,0,0,0,0,0,0,0,0,0,0,0,0,0,0,0,0,0,0,0,0,0,0,0,0,0,0,0,0,0,0,0,0,0,0,0,0,0,0,0,0,0,0,0,0,3.6002,3.6002,0,3.5986,3.5985,3.5985,3.6,3.6,3.6001,3.6001,3.5977,3.5976,3.5974,0,0,0,0,0,0,0,0,0,0,0,0,0,3.6041,3.604,3.6002,3.6002,3.6002,3.5986,3.5985,3.5985,3.5999,3.6,3.6001,3.6002,3.5977,3.5976,3.5974,0,0,0,0,0,0,0,0,0,0,0,0,0,3.6024,3.604,3.6002,3.6007,3.6008,3.5986,3.5985,3.5985,3.5999,3.6,3.6001,3.6002,3.5978,3.5976,3.5974,3.5944,0,0,3.5968,3.5968,0,0,0,0,0,0,0,0,3.6025,3.6023,3.6007,3.6007,3.6007,3.5996,3.599,3.5971,3.5999,3.6002,3.6001,3.6002,3.5982,3.598,3.5974,3.5943,3.5942,3.5968,3.5967,3.5966,3.5966,0,0,0,0,0,0,0,3.6026,3.6023,3.5995,3.6007,3.6007,3.6008,3.6007,3.5986,3.5987,3.6002,3.6003,3.6001,3.5982,3.5976,3.5974,3.5941,3.5968,3.5967,3.5965,3.5965,3.5884,3.5883,0,0,0,0,0,0,3.6028,3.6024,3.5996,3.5995,3.6019,3.6007,3.6005,3.5998,3.5987,3.5986,3.6,3.6002,3.5979,3.5976,3.5973,3.5937,3.5966,3.5965,3.5964,3.5885,3.5884,3.5883,0,0,0,0,0,0,3.6028,3.6025,3.5997,3.601,3.6007,3.6005,3.5997,3.5998,3.5992,3.5986,3.5985,3.5995,3.5979,3.5976,3.5952,3.5936,3.5964,3.5962,3.5887,3.5885,3.5884,3.5865,0,0,0,0,0,0,3.6029,3.6025,3.6015,3.601,3.6006,3.5978,3.5996,3.5997,3.5989,3.5991,3.598,3.5979,3.598,3.5954,3.595,3.5934,3.5961,3.5888,3.5886,3.5884,3.5867,3.5863,3.586,0,0,0,0,0,3.6031,3.6009,3.6015,3.6011,3.5994,3.5977,3.5974,3.5977,3.5988,3.5977,3.5974,3.598,3.5939,3.5952,3.5947,3.5931,3.5889,3.5887,3.5884,3.5869,3.5864,3.586,0,0,0,0,0,0,3.601,3.6008,3.6015,3.5991,3.5984,3.5979,3.5965,3.5972,3.596,3.5962,3.5964,3.5961,3.5936,3.5931,3.5945,3.5901,3.5915,3.5912,3.5905,3.5901,3.5897,3.5899,3.5959,0,0,0,0,0,3.6004,3.5992,3.599,3.5969,3.5966,3.5966,3.5959,3.5962,3.5954,3.5951,3.5945,3.5935,3.5921,3.591,3.5896,3.5867,3.5864,3.5853,3.585,3.5847,3.5843,3.5827,3.5822,3.5876,3.5876,3.5876,0,0,3.5988,3.5986,3.5978,3.5965,3.596,3.5947,3.5964,3.5948,3.5937,3.5947,3.5925,3.5921,3.591,3.5883,3.5871,3.5878,3.5828,3.5844,3.5841,3.584,3.5824,3.5819,3.5814,3.5874,3.5874,3.5875,0,0,3.5954,3.5951,3.5934,3.5929,3.5923,3.5923,3.5919,3.5914,3.5912,3.589,3.5898,3.5884,3.5858,3.585,3.5843,3.5806,3.5811,3.5801,3.5782,3.5766,3.5762,3.5758,3.5744,3.5739,3.5798,3.5798,3.5798,0,3.5935,3.5917,3.5924,3.5908,3.5902,3.5913,3.5894,3.5889,3.5877,3.5871,3.588,3.5849,3.5842,3.5813,3.5805,3.5798,3.5792,3.5802,3.5762,3.5758,3.5755,3.5742,3.5737,3.5797,3.5797,3.5797,3.5797,0,3.5894,3.5881,3.5868,3.5859,3.5851,3.5834,3.5836,3.5827,3.5831,3.583,3.5807,3.58,3.5785,3.5778,3.578,3.575,3.5754,3.5763,3.5777,3.5749,3.5736,3.5731,3.5795,3.5796,3.5796,3.5796,0,0,3.5846,3.5842,3.5837,3.5833,3.5827,3.5816,3.5798,3.5786,3.5778,3.5769,3.5754,3.5733,3.5741,3.5732,3.5734,3.572,3.5691,3.573,3.573,3.5722,3.5656,3.5649,3.5644,3.5695,3.5694,3.5693,3.5657,0,3.5811,3.5784,3.579,3.5762,3.575,3.576,3.5745,3.5739,3.5738,3.5725,3.5723,3.5708,3.572,3.5715,3.5702,3.5698,3.5678,3.57,3.5679,3.5678,3.5681,3.5637,3.563,3.5596,3.5652,3.5651,3.5651,0,3.5767,3.5759,3.5731,3.5728,3.5723,3.5709,3.5699,3.5687,3.568,3.5679,3.5671,3.5675,3.5656,3.5672,3.5645,3.566,3.5652,3.5648,3.5647,3.5644,3.5662,3.5633,3.5585,3.558,3.5643,3.5644,3.5644,0,3.5734,3.5716,3.5698,3.5694,3.5689,3.568,3.5677,3.567,3.5663,3.5652,3.5647,3.5634,3.5626,3.5615,3.5615,3.5626,3.5587,3.5603,3.5585,3.5585,3.5576,3.5576,3.5525,3.5571,3.5571,3.5571,3.5571,0,3.5694,3.5677,3.5683,3.5671,3.5651,3.5657,3.5637,3.5635,3.5629,3.5616,3.5623,3.561,3.5611,3.5597,3.5597,3.5574,3.5571,3.5569,3.5569,3.5568,3.5568,3.5562,3.5564,3.557,3.557,3.557,3.5571,0,3.5654,3.5658,3.5638,3.5636,3.5635,3.562,3.5617,3.5605,3.5605,3.5588,3.5584,3.5583,3.5567,3.5567,3.5548,3.5547,3.552,3.5522,3.5523,3.5523,3.5505,3.5507,3.5448,3.5441,3.5492,3.5491,3.5491,0,3.5628,3.5615,3.5613,3.5605,3.5603,3.5591,3.5584,3.5588,3.558,3.5571,3.5559,3.5545,3.5534,3.5507,3.5503,3.5489,3.5491,3.5471,3.5488,3.5488,3.549,3.5491,3.5489,3.5468,3.5467,3.5467,3.5466,0,3.5582,3.5585,3.5576,3.5567,3.5559,3.5551,3.5545,3.5538,3.5541,3.5531,3.5517,3.5508,3.549,3.5475,3.5461,3.5456,3.5461,3.5461,3.5456,3.5455,3.5456,3.5455,3.5513,3.5462,3.5463,3.5463,3.5463,3.5463,3.5548,3.5538,3.5534,3.5523,3.5519,3.5513,3.5502,3.5501,3.549,3.5477,3.548,3.5463,3.5455,3.5437,3.5431,3.5416,3.5423,3.5416,3.5414,3.5412,3.541,3.5459,3.5414,3.5414,3.5414,3.5414,3.5414,0,3.5503,3.5502,3.5492,3.5483,3.5474,3.5483,3.5475,3.5467,3.5453,3.5446,3.5435,3.5418,3.5404,3.5399,3.5385,3.5374,3.5376,3.537,3.537,3.5369,3.5405,3.5411,3.5368,3.5368,3.5368,3.5368,3.5368,3.5368,3.5478,3.546,3.5462,3.5442,3.544,3.5426,3.5421,3.5414,3.5409,3.539,3.5379,3.5377,3.5371,3.5356,3.5343,3.5341,3.5335,3.5328,3.5328,3.5362,3.5366,3.537,3.5376,3.5327,3.5327,3.5293,3.5292,3.5292]}]]